Regional Weather Roundup
Issued by NWS

Home | Current Version | Previous Version | Graphics & Text | Print | Product List | Glossary On
Versions: 1 2 3 4 5 6 7 8 9 10 11 12 13 14 15 16 17 18 19 20 21 22 23 24 25 26 27 28 29 30 31 32 33 34 35 36 37 38 39 40 41 42 43 44 45 46 47 48 49 50
297
ASUS44 KJAN 012103
RWRMS

MISSISSIPPI HOURLY WEATHER ROUNDUP
NATIONAL WEATHER SERVICE JACKSON MS
400 PM CDT WED APR 01 2015

NOTE: "FAIR: INDICATES FEW OR NO CLOUDS BELOW 12,000 FEET WITH NO
SIGNIFICANT WEATHER AND/OR OBSTRUCTIONS TO VISIBILITY.

MSZ001>002-007>008-010>013-018>021-025>028-034>036-012200-
NORTHWEST MISSISSIPPI

CITY           SKY/WX    TMP DP  RH WIND       PRES   REMARKS
CLARKSDALE     CLOUDY    75  66  73 S10       29.97F
CLEVELAND      MOCLDY    77  67  71 S13       29.95F
GREENWOOD      MOSUNNY   76  61  59 S12       29.98F
GREENVILLE     PTSUNNY   79  62  56 S18       29.94F
OLIVE BRANCH   PTSUNNY   79  63  57 SE12G21   29.95F
OXFORD         FAIR      77  59  53 S8G18     29.99S
TUNICA         MOCLDY    73  63  68 S12       29.97F
$$

MSZ003>006-009-014>017-022>024-029>033-037>039-012200-
NORTHEAST MISSISSIPPI

CITY           SKY/WX    TMP DP  RH WIND       PRES   REMARKS
COLUMBUS AFB   MOSUNNY   82  59  46 S10       29.98F
CORINTH        FAIR      79  59  50 S10       29.98F
GOLDN TRIANGLE PTSUNNY   79  61  53 S9        29.99F
STARKVILLE     MOCLDY    79  59  50 S7        29.99F
TUPELO         PTSUNNY   78  61  55 S7        29.98F
$$

MSZ040-058-012200-
CENTRAL MISSISSIPPI

CITY           SKY/WX    TMP DP  RH WIND       PRES   REMARKS
JACKSON INTL   CLOUDY    79  61  53 S10       30.00F
JACKSON HAWKNS CLOUDY    79  58  48 VRB6G18   29.99F
MERIDIAN KEY   PTSUNNY   79  59  50 SW10      30.02F
MERIDIAN NAS   PTSUNNY   78  59  51 VRB6      30.01F
RAYMOND        FAIR      79  75  89 S12       29.99S
VICKSBURG      PTSUNNY   79  59  50 S14       29.97F
$$

MSZ059>079-012200-
SOUTH MISSISSIPPI

CITY           SKY/WX    TMP DP  RH WIND       PRES   REMARKS
BROOKHAVEN     FAIR     N/A N/A N/A S7        30.02F
HATTIESBURG    CLOUDY    82  58  43 S9        30.02F
MCCOMB         PTSUNNY   80  60  50 S15       30.01F
NATCHEZ        PTSUNNY   82  57  42 S14       29.99F
PINE BELT      CLOUDY    81  55  41 S5        30.03F
$$

MSZ080>082-012200-
COASTAL MISSISSIPPI

CITY           SKY/WX    TMP DP  RH WIND       PRES   REMARKS
BAY ST LOUIS   MOSUNNY   79  63  57 MISG      30.04F
BILOXI         CLOUDY    75  67  76 S10       30.04F
PASCAGOULA     PTSUNNY   76  63  64 S7        30.06F
GULFPORT       CLOUDY    76  65  68 SE14      30.04F
$$



USA.gov is the U.S. government's official web portal to all federal, state and local government web resources and services.